[[{"header":{"parameterUnit":"m.s-1","parameterCategory":1,"la1":30.2991,"la2":30.254,"lo1":-89.0895,"lo2":-89.0444,"dy":0.0017,"dx":0.0017,"nx":28,"ny":28,"refTime":"2025-03-31T03:00:00:Z","depth":0,"parameterNumber":2,"parameterNumberName":"U-component_of_WINDS"},"data":[0,0,0,0,0,0,0,0,0,0,0,0,0,0,0,0,0,0,0,0,0,0,0,0,0,0,0,0,0,0,0,0,0,0,0,0,0,0,0,0,0,0,0,0,0,0,0,0,0,0,0,0,0,0,0,0,0,0,-0.6484,-0.6484,0,-0.6479,-0.6479,-0.6478,-0.6465,-0.6465,-0.6465,-0.6464,-0.646,-0.646,-0.646,0,0,0,0,0,0,0,0,0,0,0,0,0,-0.6484,-0.6484,-0.6484,-0.6484,-0.6484,-0.6479,-0.6479,-0.6478,-0.6465,-0.6465,-0.6465,-0.6464,-0.646,-0.646,-0.646,0,0,0,0,0,0,0,0,0,0,0,0,0,-0.6482,-0.6484,-0.6484,-0.6477,-0.6476,-0.6479,-0.6479,-0.6478,-0.6465,-0.6465,-0.6465,-0.6464,-0.646,-0.646,-0.646,-0.647,0,0,-0.6461,-0.6461,0,0,0,0,0,0,0,0,-0.6482,-0.6482,-0.6478,-0.6477,-0.6476,-0.6472,-0.6477,-0.6476,-0.6465,-0.6469,-0.6464,-0.6464,-0.6464,-0.6464,-0.6464,-0.647,-0.6469,-0.6461,-0.6461,-0.6461,-0.6461,0,0,0,0,0,0,0,-0.6482,-0.6482,-0.6482,-0.6478,-0.6477,-0.6474,-0.6473,-0.6476,-0.6469,-0.6469,-0.6468,-0.6468,-0.6464,-0.6464,-0.6464,-0.6469,-0.6461,-0.6461,-0.6461,-0.6461,-0.6481,-0.6482,0,0,0,0,0,0,-0.6483,-0.6482,-0.6482,-0.6482,-0.6478,-0.6474,-0.6473,-0.6474,-0.6469,-0.6468,-0.6468,-0.6467,-0.6464,-0.6464,-0.6464,-0.6474,-0.6461,-0.6461,-0.6461,-0.6481,-0.6482,-0.6482,0,0,0,0,0,0,-0.6483,-0.6483,-0.6482,-0.6482,-0.6481,-0.6475,-0.6475,-0.6474,-0.6474,-0.6468,-0.6467,-0.6469,-0.6463,-0.6463,-0.6468,-0.6473,-0.6461,-0.6461,-0.6481,-0.6481,-0.6482,-0.6495,0,0,0,0,0,0,-0.6483,-0.6483,-0.6487,-0.6482,-0.6481,-0.6487,-0.6476,-0.6474,-0.6474,-0.6473,-0.6469,-0.6468,-0.6463,-0.6468,-0.6468,-0.6474,-0.6462,-0.648,-0.6481,-0.6482,-0.6494,-0.6496,-0.6497,0,0,0,0,0,-0.6483,-0.6491,-0.6487,-0.6487,-0.6486,-0.6487,-0.6487,-0.648,-0.6475,-0.6478,-0.6474,-0.6468,-0.6473,-0.6468,-0.6469,-0.6474,-0.648,-0.6481,-0.6482,-0.6493,-0.6495,-0.6497,0,0,0,0,0,0,-0.6497,-0.649,-0.6486,-0.6492,-0.649,-0.6485,-0.6489,-0.6483,-0.6483,-0.6482,-0.6474,-0.6474,-0.6479,-0.6477,-0.6472,-0.6483,-0.6475,-0.6476,-0.6484,-0.6486,-0.6488,-0.6488,-0.6462,0,0,0,0,0,-0.6501,-0.6503,-0.6497,-0.6503,-0.6502,-0.6496,-0.6496,-0.6491,-0.6489,-0.6488,-0.6485,-0.6483,-0.6484,-0.6485,-0.6486,-0.6494,-0.6492,-0.6498,-0.6499,-0.6501,-0.6502,-0.6505,-0.6507,-0.6485,-0.6485,-0.6485,0,0,-0.6509,-0.6506,-0.6507,-0.6506,-0.6504,-0.6505,-0.6495,-0.6498,-0.6499,-0.6489,-0.6493,-0.649,-0.6488,-0.6494,-0.6497,-0.6493,-0.6507,-0.6502,-0.6503,-0.6503,-0.6506,-0.6508,-0.651,-0.6486,-0.6486,-0.6486,0,0,-0.6525,-0.6522,-0.6527,-0.6525,-0.6522,-0.6517,-0.6518,-0.6514,-0.6511,-0.6515,-0.6507,-0.6509,-0.6511,-0.6509,-0.6509,-0.6523,-0.6517,-0.6523,-0.6533,-0.6536,-0.6537,-0.6539,-0.6543,-0.6545,-0.6524,-0.6524,-0.6524,0,-0.6535,-0.6537,-0.653,-0.6533,-0.6532,-0.6523,-0.6527,-0.6526,-0.6523,-0.6523,-0.6518,-0.652,-0.6518,-0.6523,-0.6526,-0.6527,-0.6527,-0.6523,-0.6538,-0.6539,-0.654,-0.6544,-0.6546,-0.6525,-0.6525,-0.6525,-0.6525,0,-0.655,-0.6552,-0.6556,-0.6553,-0.6553,-0.6556,-0.6549,-0.655,-0.6545,-0.6541,-0.6545,-0.6542,-0.6542,-0.6543,-0.6538,-0.6547,-0.6544,-0.6539,-0.6531,-0.6543,-0.6547,-0.6548,-0.6526,-0.6526,-0.6526,-0.6525,0,0,-0.6575,-0.6567,-0.6568,-0.6566,-0.6562,-0.6563,-0.6566,-0.6565,-0.6565,-0.6564,-0.6566,-0.6568,-0.6562,-0.6562,-0.6557,-0.656,-0.657,-0.6554,-0.6554,-0.6557,-0.6579,-0.6582,-0.6584,-0.6567,-0.6567,-0.6567,-0.6579,0,-0.6588,-0.6593,-0.6586,-0.6592,-0.6593,-0.6583,-0.6586,-0.6583,-0.658,-0.658,-0.6576,-0.6577,-0.6571,-0.657,-0.6573,-0.6569,-0.6575,-0.6568,-0.6568,-0.6568,-0.6568,-0.6586,-0.659,-0.6601,-0.658,-0.658,-0.6581,0,-0.6605,-0.6603,-0.6609,-0.6603,-0.6603,-0.6606,-0.6604,-0.6605,-0.6601,-0.6598,-0.6597,-0.6592,-0.6594,-0.6587,-0.659,-0.6585,-0.6585,-0.6583,-0.6584,-0.6583,-0.6575,-0.6585,-0.6605,-0.6606,-0.6583,-0.6583,-0.6583,0,-0.6621,-0.6621,-0.6624,-0.6622,-0.6616,-0.6618,-0.6615,-0.6612,-0.6611,-0.661,-0.6609,-0.6608,-0.6608,-0.6607,-0.6601,-0.6596,-0.6605,-0.6597,-0.6602,-0.6602,-0.6604,-0.6604,-0.6623,-0.6605,-0.6605,-0.6605,-0.6605,0,-0.6637,-0.6641,-0.6631,-0.6633,-0.6636,-0.6628,-0.6632,-0.6629,-0.6626,-0.6627,-0.6619,-0.662,-0.6613,-0.6613,-0.6608,-0.6611,-0.6611,-0.6609,-0.6607,-0.6609,-0.6609,-0.6608,-0.6607,-0.6605,-0.6605,-0.6605,-0.6605,0,-0.6656,-0.6649,-0.6652,-0.6645,-0.6643,-0.6646,-0.6641,-0.6642,-0.6638,-0.6639,-0.6639,-0.6632,-0.6632,-0.6626,-0.6625,-0.6622,-0.6627,-0.6624,-0.6627,-0.6626,-0.6631,-0.6631,-0.665,-0.6652,-0.6634,-0.6634,-0.6634,0,-0.6666,-0.6668,-0.6662,-0.6661,-0.6659,-0.6659,-0.6658,-0.665,-0.665,-0.6646,-0.6648,-0.6647,-0.6646,-0.6646,-0.6641,-0.664,-0.6637,-0.6644,-0.6637,-0.6639,-0.6637,-0.6636,-0.6636,-0.6646,-0.6646,-0.6646,-0.6646,0,-0.6684,-0.6681,-0.668,-0.6677,-0.6676,-0.6674,-0.6671,-0.6672,-0.6664,-0.6663,-0.6663,-0.6662,-0.666,-0.6659,-0.6657,-0.6655,-0.6649,-0.6648,-0.6649,-0.6651,-0.6652,-0.6651,-0.6631,-0.6648,-0.6648,-0.6648,-0.6648,-0.6647,-0.6699,-0.67,-0.6695,-0.6694,-0.6691,-0.6688,-0.6689,-0.6684,-0.6683,-0.6681,-0.6677,-0.6677,-0.6673,-0.667,-0.6668,-0.6667,-0.6664,-0.6666,-0.6666,-0.6666,-0.6667,-0.6653,-0.6667,-0.6667,-0.6667,-0.6667,-0.6667,0,-0.6716,-0.6712,-0.6711,-0.6707,-0.6706,-0.67,-0.6697,-0.6696,-0.6696,-0.6693,-0.6692,-0.6691,-0.669,-0.6684,-0.6683,-0.6684,-0.6681,-0.6683,-0.6683,-0.6682,-0.667,-0.6669,-0.6686,-0.6686,-0.6686,-0.6686,-0.6686,-0.6686,-0.6725,-0.6726,-0.6722,-0.6722,-0.6718,-0.6717,-0.6716,-0.6713,-0.6711,-0.671,-0.6708,-0.6705,-0.6701,-0.6699,-0.6697,-0.6696,-0.6695,-0.6699,-0.6696,-0.6685,-0.6683,-0.6682,-0.668,-0.6699,-0.6699,-0.6708,-0.6708,-0.6708]},{"header":{"parameterUnit":"m.s-1","parameterCategory":1,"la1":30.2991,"la2":30.254,"lo1":-89.0895,"lo2":-89.0444,"dy":0.0017,"dx":0.0017,"nx":28,"ny":28,"refTime":"2025-03-31T03:00:00:Z","depth":0,"parameterNumber":3,"parameterNumberName":"V-component_of_WINDS"},"data":[0,0,0,0,0,0,0,0,0,0,0,0,0,0,0,0,0,0,0,0,0,0,0,0,0,0,0,0,0,0,0,0,0,0,0,0,0,0,0,0,0,0,0,0,0,0,0,0,0,0,0,0,0,0,0,0,0,0,2.4706,2.4706,0,2.4722,2.4722,2.4722,2.4724,2.4724,2.4724,2.4724,2.4737,2.4738,2.4738,0,0,0,0,0,0,0,0,0,0,0,0,0,2.4676,2.4676,2.4706,2.4706,2.4706,2.4722,2.4722,2.4722,2.4724,2.4724,2.4724,2.4724,2.4737,2.4738,2.4738,0,0,0,0,0,0,0,0,0,0,0,0,0,2.469,2.4676,2.4706,2.4709,2.471,2.4722,2.4722,2.4722,2.4724,2.4724,2.4724,2.4724,2.4737,2.4738,2.4738,2.4747,0,0,2.4741,2.4741,0,0,0,0,0,0,0,0,2.4689,2.4691,2.4708,2.4709,2.4709,2.4721,2.4716,2.473,2.4724,2.4719,2.4724,2.4723,2.4732,2.4733,2.4736,2.4748,2.4749,2.4741,2.4741,2.4742,2.4742,0,0,0,0,0,0,0,2.4688,2.469,2.4712,2.4709,2.4709,2.4709,2.4711,2.4719,2.4726,2.4719,2.4719,2.4721,2.4732,2.4736,2.4737,2.4749,2.4741,2.4741,2.4742,2.4742,2.477,2.477,0,0,0,0,0,0,2.4687,2.4689,2.4711,2.4712,2.4699,2.471,2.4712,2.4717,2.4726,2.4727,2.4721,2.4721,2.4734,2.4736,2.4737,2.4749,2.4742,2.4742,2.4743,2.477,2.477,2.477,0,0,0,0,0,0,2.4686,2.4689,2.4711,2.4701,2.4704,2.4711,2.4717,2.4718,2.4721,2.4728,2.4729,2.4724,2.4734,2.4736,2.4745,2.475,2.4743,2.4743,2.4769,2.477,2.477,2.4773,0,0,0,0,0,0,2.4685,2.4688,2.4692,2.4701,2.4704,2.4719,2.4717,2.4718,2.4723,2.4723,2.473,2.4731,2.4734,2.4744,2.4746,2.4751,2.4744,2.4769,2.4769,2.477,2.4772,2.4773,2.4774,0,0,0,0,0,2.4684,2.4691,2.4692,2.4695,2.4709,2.4719,2.4721,2.4725,2.4723,2.4727,2.4731,2.4731,2.4749,2.4745,2.4747,2.4752,2.4769,2.4769,2.477,2.4772,2.4773,2.4774,0,0,0,0,0,0,2.4681,2.4692,2.4694,2.4704,2.4711,2.472,2.4724,2.4726,2.4732,2.4732,2.4736,2.4738,2.4747,2.475,2.4746,2.4762,2.4758,2.476,2.4759,2.476,2.4761,2.4761,2.4744,0,0,0,0,0,2.4682,2.469,2.4699,2.4707,2.4711,2.4717,2.4722,2.4724,2.4731,2.4734,2.4739,2.4745,2.4752,2.4756,2.4763,2.4773,2.4775,2.4777,2.4778,2.4779,2.478,2.4786,2.4788,2.4772,2.4772,2.4772,0,0,2.4683,2.469,2.4695,2.4707,2.4713,2.4721,2.4719,2.4727,2.4733,2.4734,2.4744,2.4748,2.4755,2.4765,2.477,2.4768,2.4785,2.4779,2.478,2.4781,2.4787,2.4789,2.479,2.4773,2.4773,2.4773,0,0,2.469,2.4696,2.4704,2.471,2.4719,2.4724,2.4726,2.4735,2.4738,2.4748,2.4749,2.4756,2.4768,2.4773,2.4777,2.4788,2.4788,2.479,2.4794,2.4801,2.4802,2.4803,2.4808,2.481,2.4791,2.4791,2.4791,0,2.469,2.4703,2.4708,2.4717,2.4722,2.4725,2.4734,2.4739,2.4749,2.4753,2.4751,2.4767,2.4772,2.4784,2.4787,2.479,2.4793,2.4789,2.4802,2.4803,2.4804,2.4809,2.481,2.4791,2.4791,2.4791,2.4791,0,2.4703,2.4712,2.4717,2.4729,2.4735,2.4744,2.475,2.4756,2.4758,2.4762,2.4773,2.4779,2.4788,2.4791,2.4792,2.4803,2.4802,2.4801,2.4798,2.4806,2.481,2.4812,2.4791,2.4791,2.4791,2.4791,0,0,2.4707,2.4723,2.4725,2.4731,2.4742,2.4749,2.4758,2.4768,2.4773,2.478,2.4788,2.4798,2.4798,2.4803,2.4805,2.4811,2.482,2.4809,2.481,2.4812,2.4834,2.4836,2.4838,2.4821,2.4821,2.4821,2.4834,0,2.4716,2.4733,2.4739,2.4753,2.4762,2.4765,2.4773,2.478,2.4785,2.4793,2.4798,2.4806,2.4804,2.4807,2.4813,2.4818,2.4825,2.4817,2.4828,2.4829,2.4827,2.484,2.4841,2.4853,2.4836,2.4836,2.4836,0,2.4727,2.4737,2.4753,2.4764,2.4768,2.4775,2.4786,2.4793,2.4802,2.4805,2.4811,2.4814,2.4823,2.4819,2.4833,2.4827,2.4832,2.4835,2.4836,2.4837,2.4833,2.4843,2.4856,2.4859,2.4839,2.4838,2.4838,0,2.473,2.4747,2.4759,2.4764,2.4777,2.4783,2.4788,2.4797,2.4803,2.4812,2.4816,2.4825,2.483,2.4837,2.4842,2.4838,2.4855,2.4851,2.4858,2.4858,2.4862,2.4861,2.4877,2.4863,2.4863,2.4863,2.4863,0,2.474,2.4749,2.4761,2.4768,2.4779,2.4786,2.4796,2.4802,2.481,2.4818,2.4821,2.4829,2.4835,2.4843,2.4846,2.4858,2.4859,2.4862,2.4863,2.4863,2.4863,2.4866,2.4866,2.4864,2.4864,2.4864,2.4863,0,2.4744,2.4753,2.4766,2.4779,2.4782,2.479,2.48,2.4808,2.4813,2.4824,2.4827,2.4835,2.4845,2.4851,2.4863,2.4865,2.4878,2.4878,2.4876,2.4876,2.4883,2.4883,2.4903,2.4906,2.4889,2.4889,2.4889,0,2.475,2.4758,2.4772,2.4779,2.4785,2.4796,2.4803,2.4809,2.4816,2.4828,2.4834,2.4845,2.4854,2.487,2.4877,2.4886,2.4887,2.4894,2.4889,2.4888,2.4889,2.4889,2.489,2.4894,2.4895,2.4895,2.4895,0,2.476,2.4764,2.4774,2.4787,2.4796,2.4805,2.4815,2.482,2.4828,2.4836,2.4847,2.4854,2.4868,2.4879,2.489,2.4895,2.4897,2.4897,2.4899,2.4899,2.4897,2.4899,2.4879,2.4896,2.4896,2.4896,2.4896,2.4896,2.4766,2.4774,2.4786,2.4798,2.4806,2.4816,2.4824,2.4831,2.4841,2.4854,2.4857,2.487,2.4879,2.4894,2.49,2.4909,2.4908,2.4911,2.4912,2.4913,2.4914,2.4895,2.4911,2.4911,2.4911,2.4911,2.4911,0,2.4776,2.4785,2.4796,2.4811,2.482,2.4822,2.4833,2.4841,2.4853,2.4862,2.4872,2.4886,2.4897,2.4905,2.4916,2.4922,2.4923,2.4925,2.4925,2.4926,2.4913,2.4911,2.4924,2.4924,2.4924,2.4924,2.4924,2.4924,2.4783,2.4797,2.4803,2.4822,2.483,2.4843,2.485,2.4858,2.4866,2.4882,2.4892,2.4898,2.4907,2.492,2.493,2.4932,2.4936,2.4938,2.4941,2.4928,2.4927,2.4926,2.4924,2.4939,2.4939,2.4953,2.4953,2.4953]}]]